Donnes mto: Actuelle mardi, 20/02/2024 11:09
Date Horaire Temp. E. Hum. E. P.atmo. Pluie Vent Direction Direction Ensoleilleme UV Solaire P. de rose Temp au vent Rafales
20/02/2024 11:09 10,2 C 86 % 1034,6 hPa 0,0 mm 3,2 km/h (1 Bft) O-NO 292 0 min 0,7 UV-I 186 W/m 8,0 C 10,2 C 6,4 km/h (2 Bft)
20/02/2024 11:08 10,2 C 86 % 1034,5 hPa 0,0 mm 1,6 km/h (1 Bft) O-NO 292 0 min 0,7 UV-I 178 W/m 8,0 C 10,2 C 6,4 km/h (2 Bft)
20/02/2024 11:07 10,2 C 86 % 1034,5 hPa 0,0 mm 1,6 km/h (1 Bft) O-NO 292 0 min 0,6 UV-I 174 W/m 8,0 C 10,2 C 3,2 km/h (1 Bft)
20/02/2024 11:06 10,2 C 86 % 1034,5 hPa 0,0 mm 1,8 km/h (1 Bft) O-NO 294 0 min 0,6 UV-I 174 W/m 8,0 C 10,2 C 6,4 km/h (2 Bft)
20/02/2024 11:03 10,1 C 86 % 1034,6 hPa 0,0 mm 1,6 km/h (1 Bft) O-NO 292 0 min 0,6 UV-I 195 W/m 7,9 C 10,1 C 3,2 km/h (1 Bft)
20/02/2024 11:02 10,0 C 86 % 1034,6 hPa 0,0 mm 1,6 km/h (1 Bft) O-NO 292 0 min 0,6 UV-I 207 W/m 7,8 C 10,0 C 3,2 km/h (1 Bft)
20/02/2024 11:01 10,0 C 86 % 1034,6 hPa 0,0 mm 0,0 km/h (0 Bft) O-NO 292 0 min 0,7 UV-I 220 W/m 7,8 C 10,0 C 1,6 km/h (1 Bft)
20/02/2024 11:00 10,0 C 86 % 1034,6 hPa 0,0 mm 0,8 km/h (0 Bft) O-NO 295 0 min 0,7 UV-I 220 W/m 7,8 C 10,0 C 1,6 km/h (1 Bft)
20/02/2024 10:57 10,0 C 87 % 1034,6 hPa 0,0 mm 1,0 km/h (0 Bft) O-NO 295 0 min 0,7 UV-I 221 W/m 7,9 C 10,0 C 3,2 km/h (1 Bft)
20/02/2024 10:54 9,9 C 87 % 1034,6 hPa 0,0 mm 1,8 km/h (1 Bft) O-NO 294 3 min 0,7 UV-I 244 W/m 7,8 C 9,9 C 3,2 km/h (1 Bft)
20/02/2024 10:51 9,9 C 87 % 1034,6 hPa 0,0 mm 1,5 km/h (1 Bft) O-NO 296 5 min 0,7 UV-I 302 W/m 7,8 C 9,9 C 4,8 km/h (1 Bft)
20/02/2024 10:45 9,7 C 87 % 1034,8 hPa 0,0 mm 1,5 km/h (1 Bft) NE 44 3 min 0,7 UV-I 246 W/m 7,6 C 9,7 C 4,8 km/h (1 Bft)
20/02/2024 10:42 9,7 C 87 % 1034,8 hPa 0,0 mm 2,6 km/h (1 Bft) NE 44 0 min 0,6 UV-I 153 W/m 7,6 C 9,7 C 4,8 km/h (1 Bft)
20/02/2024 10:39 9,8 C 87 % 1034,9 hPa 0,0 mm 1,3 km/h (1 Bft) NE 46 0 min 0,6 UV-I 125 W/m 7,7 C 9,8 C 4,8 km/h (1 Bft)
20/02/2024 10:36 9,7 C 87 % 1034,8 hPa 0,0 mm 0,5 km/h (0 Bft) N 359 0 min 0,6 UV-I 127 W/m 7,6 C 9,7 C 4,8 km/h (1 Bft)
20/02/2024 10:33 9,7 C 87 % 1034,9 hPa 0,0 mm 0,0 km/h (0 Bft) N 354 0 min 0,5 UV-I 139 W/m 7,6 C 9,7 C 0,0 km/h (0 Bft)
20/02/2024 10:30 9,8 C 87 % 1034,8 hPa 0,0 mm 0,6 km/h (0 Bft) N 354 0 min 0,5 UV-I 93 W/m 7,7 C 9,8 C 3,2 km/h (1 Bft)
20/02/2024 10:27 9,8 C 87 % 1034,8 hPa 0,0 mm 1,6 km/h (1 Bft) N 9 0 min 0,0 UV-I 100 W/m 7,7 C 9,8 C 6,4 km/h (2 Bft)
20/02/2024 10:24 9,7 C 87 % 1034,9 hPa 0,0 mm 0,8 km/h (0 Bft) SE 124 0 min 0,0 UV-I 113 W/m 7,6 C 9,7 C 3,2 km/h (1 Bft)
20/02/2024 10:21 9,7 C 87 % 1034,9 hPa 0,0 mm 0,7 km/h (0 Bft) E-SE 102 0 min 0,0 UV-I 107 W/m 7,6 C 9,7 C 3,2 km/h (1 Bft)
20/02/2024 10:18 9,7 C 87 % 1035,0 hPa 0,0 mm 1,8 km/h (1 Bft) O 281 0 min 0,0 UV-I 105 W/m 7,6 C 9,7 C 4,8 km/h (1 Bft)
20/02/2024 10:15 9,7 C 87 % 1035,0 hPa 0,0 mm 1,5 km/h (1 Bft) O 280 0 min 0,0 UV-I 113 W/m 7,6 C 9,7 C 6,4 km/h (2 Bft)
20/02/2024 10:12 9,7 C 87 % 1035,0 hPa 0,0 mm 2,3 km/h (1 Bft) O 276 0 min 0,0 UV-I 123 W/m 7,6 C 9,7 C 8,0 km/h (2 Bft)
20/02/2024 10:09 9,6 C 87 % 1035,0 hPa 0,0 mm 3,1 km/h (1 Bft) O-SO 247 0 min 0,0 UV-I 118 W/m 7,5 C 9,6 C 6,4 km/h (2 Bft)
20/02/2024 10:06 9,6 C 87 % 1035,1 hPa 0,0 mm 1,4 km/h (1 Bft) O-SO 237 0 min 0,0 UV-I 141 W/m 7,5 C 9,6 C 6,4 km/h (2 Bft)
20/02/2024 10:03 9,5 C 87 % 1035,0 hPa 0,0 mm 0,9 km/h (0 Bft) O 276 0 min 0,0 UV-I 148 W/m 7,4 C 9,5 C 3,2 km/h (1 Bft)
20/02/2024 10:00 9,4 C 87 % 1035,0 hPa 0,0 mm 1,8 km/h (1 Bft) O 275 0 min 0,0 UV-I 149 W/m 7,3 C 9,4 C 4,8 km/h (1 Bft)
20/02/2024 09:57 9,3 C 88 % 1035,0 hPa 0,0 mm 2,3 km/h (1 Bft) O 276 0 min 0,0 UV-I 116 W/m 7,4 C 9,3 C 4,8 km/h (1 Bft)
20/02/2024 09:54 9,2 C 87 % 1035,1 hPa 0,0 mm 2,4 km/h (1 Bft) O 274 0 min 0,0 UV-I 105 W/m 7,2 C 9,2 C 8,0 km/h (2 Bft)
20/02/2024 09:51 9,2 C 88 % 1035,2 hPa 0,0 mm 0,6 km/h (0 Bft) O-SO 255 0 min 0,0 UV-I 141 W/m 7,3 C 9,2 C 3,2 km/h (1 Bft)
20/02/2024 09:48 9,2 C 88 % 1035,1 hPa 0,0 mm 0,5 km/h (0 Bft) O-SO 255 0 min 0,0 UV-I 84 W/m 7,3 C 9,2 C 3,2 km/h (1 Bft)
20/02/2024 09:45 9,1 C 88 % 1035,3 hPa 0,0 mm 0,3 km/h (0 Bft) O-SO 253 0 min 0,0 UV-I 72 W/m 7,2 C 9,1 C 3,2 km/h (1 Bft)
20/02/2024 09:42 9,1 C 88 % 1035,3 hPa 0,0 mm 0,0 km/h (0 Bft) O-SO 253 0 min 0,0 UV-I 69 W/m 7,2 C 9,1 C 0,0 km/h (0 Bft)
20/02/2024 09:39 9,1 C 88 % 1035,3 hPa 0,0 mm 0,0 km/h (0 Bft) O-SO 251 0 min 0,0 UV-I 70 W/m 7,2 C 9,1 C 0,0 km/h (0 Bft)
20/02/2024 09:36 9,0 C 88 % 1035,4 hPa 0,0 mm 0,0 km/h (0 Bft) O-SO 256 0 min 0,0 UV-I 93 W/m 7,1 C 9,0 C 0,0 km/h (0 Bft)
20/02/2024 09:33 8,9 C 88 % 1035,3 hPa 0,0 mm 0,0 km/h (0 Bft) O-SO 253 0 min 0,0 UV-I 95 W/m 7,0 C 8,9 C 0,0 km/h (0 Bft)
20/02/2024 09:30 8,9 C 88 % 1035,3 hPa 0,0 mm 0,0 km/h (0 Bft) O-SO 253 0 min 0,0 UV-I 81 W/m 7,0 C 8,9 C 0,0 km/h (0 Bft)
20/02/2024 09:27 8,9 C 88 % 1035,3 hPa 0,0 mm 0,0 km/h (0 Bft) O-SO 253 0 min 0,0 UV-I 93 W/m 7,0 C 8,9 C 0,0 km/h (0 Bft)
20/02/2024 09:24 8,8 C 88 % 1035,3 hPa 0,0 mm 0,0 km/h (0 Bft) O-SO 254 0 min 0,0 UV-I 88 W/m 6,9 C 8,8 C 0,0 km/h (0 Bft)
20/02/2024 09:21 8,8 C 88 % 1035,3 hPa 0,0 mm 0,0 km/h (0 Bft) O-SO 252 0 min 0,0 UV-I 83 W/m 6,9 C 8,8 C 1,6 km/h (1 Bft)
20/02/2024 09:18 8,8 C 88 % 1035,3 hPa 0,0 mm 0,4 km/h (0 Bft) O-SO 253 0 min 0,0 UV-I 49 W/m 6,9 C 8,8 C 1,6 km/h (1 Bft)
20/02/2024 09:15 8,8 C 88 % 1035,3 hPa 0,0 mm 1,4 km/h (1 Bft) O-SO 251 0 min 0,0 UV-I 26 W/m 6,9 C 8,8 C 4,8 km/h (1 Bft)
20/02/2024 09:12 8,8 C 88 % 1035,2 hPa 0,0 mm 1,2 km/h (1 Bft) O-SO 251 0 min 0,0 UV-I 19 W/m 6,9 C 8,8 C 3,2 km/h (1 Bft)
20/02/2024 09:09 8,8 C 88 % 1035,2 hPa 0,0 mm 0,6 km/h (0 Bft) O-SO 251 0 min 0,0 UV-I 25 W/m 6,9 C 8,8 C 6,4 km/h (2 Bft)
20/02/2024 09:06 8,8 C 88 % 1035,2 hPa 0,0 mm 0,3 km/h (0 Bft) SO 229 0 min 0,0 UV-I 28 W/m 6,9 C 8,8 C 3,2 km/h (1 Bft)
20/02/2024 09:03 8,8 C 88 % 1035,2 hPa 0,0 mm 0,0 km/h (0 Bft) SO 230 0 min 0,0 UV-I 28 W/m 6,9 C 8,8 C 0,0 km/h (0 Bft)
20/02/2024 09:00 8,8 C 88 % 1035,1 hPa 0,0 mm 0,0 km/h (0 Bft) SO 231 0 min 0,0 UV-I 25 W/m 6,9 C 8,8 C 0,0 km/h (0 Bft)
20/02/2024 08:57 8,7 C 88 % 1035,2 hPa 0,0 mm 0,0 km/h (0 Bft) SO 229 0 min 0,0 UV-I 21 W/m 6,8 C 8,7 C 0,0 km/h (0 Bft)
20/02/2024 08:54 8,7 C 88 % 1035,1 hPa 0,0 mm 0,0 km/h (0 Bft) SO 230 0 min 0,0 UV-I 16 W/m 6,8 C 8,7 C 0,0 km/h (0 Bft)
20/02/2024 08:51 8,6 C 88 % 1035,1 hPa 0,0 mm 0,0 km/h (0 Bft) SO 230 0 min 0,0 UV-I 19 W/m 6,7 C 8,6 C 0,0 km/h (0 Bft)
20/02/2024 08:48 8,6 C 88 % 1035,0 hPa 0,0 mm 0,0 km/h (0 Bft) SO 234 0 min 0,0 UV-I 19 W/m 6,7 C 8,6 C 0,0 km/h (0 Bft)
20/02/2024 08:45 8,6 C 88 % 1035,0 hPa 0,0 mm 0,0 km/h (0 Bft) SO 231 0 min 0,0 UV-I 21 W/m 6,7 C 8,6 C 1,6 km/h (1 Bft)
20/02/2024 08:42 8,6 C 88 % 1035,0 hPa 0,0 mm 0,4 km/h (0 Bft) SO 229 0 min 0,0 UV-I 23 W/m 6,7 C 8,6 C 1,6 km/h (1 Bft)
20/02/2024 08:39 8,6 C 88 % 1034,9 hPa 0,0 mm 0,4 km/h (0 Bft) SO 229 0 min 0,0 UV-I 19 W/m 6,7 C 8,6 C 1,6 km/h (1 Bft)
20/02/2024 08:36 8,5 C 88 % 1034,9 hPa 0,0 mm 1,5 km/h (1 Bft) SO 230 0 min 0,0 UV-I 21 W/m 6,6 C 8,5 C 4,8 km/h (1 Bft)
20/02/2024 08:33 8,4 C 88 % 1034,8 hPa 0,0 mm 2,1 km/h (1 Bft) SO 224 0 min 0,0 UV-I 21 W/m 6,5 C 8,4 C 6,4 km/h (2 Bft)
20/02/2024 08:30 8,4 C 88 % 1034,9 hPa 0,0 mm 0,4 km/h (0 Bft) SO 229 0 min 0,0 UV-I 18 W/m 6,5 C 8,4 C 3,2 km/h (1 Bft)
20/02/2024 08:27 8,4 C 88 % 1034,9 hPa 0,0 mm 0,2 km/h (0 Bft) SO 229 0 min 0,0 UV-I 12 W/m 6,5 C 8,4 C 3,2 km/h (1 Bft)
20/02/2024 08:24 8,4 C 88 % 1034,8 hPa 0,0 mm 0,0 km/h (0 Bft) SO 229 0 min 0,0 UV-I 11 W/m 6,5 C 8,4 C 0,0 km/h (0 Bft)
20/02/2024 08:21 8,3 C 88 % 1034,8 hPa 0,0 mm 0,0 km/h (0 Bft) SO 233 0 min 0,0 UV-I 11 W/m 6,4 C 8,3 C 0,0 km/h (0 Bft)
20/02/2024 08:18 8,3 C 88 % 1034,7 hPa 0,0 mm 0,0 km/h (0 Bft) SO 231 0 min 0,0 UV-I 11 W/m 6,4 C 8,3 C 0,0 km/h (0 Bft)
20/02/2024 08:15 8,3 C 88 % 1034,7 hPa 0,0 mm 1,2 km/h (1 Bft) SO 228 0 min 0,0 UV-I 11 W/m 6,4 C 8,3 C 3,2 km/h (1 Bft)
20/02/2024 08:12 8,2 C 88 % 1034,7 hPa 0,0 mm 1,0 km/h (0 Bft) SO 228 0 min 0,0 UV-I 9 W/m 6,3 C 8,2 C 4,8 km/h (1 Bft)
20/02/2024 08:09 8,2 C 88 % 1034,7 hPa 0,0 mm 0,2 km/h (0 Bft) SO 227 0 min 0,0 UV-I 7 W/m 6,3 C 8,2 C 3,2 km/h (1 Bft)
20/02/2024 08:06 8,2 C 88 % 1034,6 hPa 0,0 mm 0,0 km/h (0 Bft) SO 226 0 min 0,0 UV-I 5 W/m 6,3 C 8,2 C 0,0 km/h (0 Bft)
20/02/2024 08:03 8,2 C 88 % 1034,6 hPa 0,0 mm 0,0 km/h (0 Bft) SO 230 0 min 0,0 UV-I 5 W/m 6,3 C 8,2 C 0,0 km/h (0 Bft)
20/02/2024 08:00 8,2 C 88 % 1034,5 hPa 0,0 mm 0,0 km/h (0 Bft) SO 228 0 min 0,0 UV-I 0 W/m 6,3 C 8,2 C 0,0 km/h (0 Bft)
20/02/2024 07:57 8,2 C 88 % 1034,5 hPa 0,0 mm 0,0 km/h (0 Bft) SO 226 0 min 0,0 UV-I 0 W/m 6,3 C 8,2 C 0,0 km/h (0 Bft)
20/02/2024 07:54 8,2 C 88 % 1034,5 hPa 0,0 mm 0,8 km/h (0 Bft) SO 226 0 min 0,0 UV-I 0 W/m 6,3 C 8,2 C 3,2 km/h (1 Bft)
20/02/2024 07:51 8,2 C 88 % 1034,5 hPa 0,0 mm 0,0 km/h (0 Bft) SO 226 0 min 0,0 UV-I 0 W/m 6,3 C 8,2 C 0,0 km/h (0 Bft)
20/02/2024 07:48 8,2 C 88 % 1034,5 hPa 0,0 mm 0,0 km/h (0 Bft) SO 227 0 min 0,0 UV-I 0 W/m 6,3 C 8,2 C 0,0 km/h (0 Bft)
20/02/2024 07:45 8,2 C 88 % 1034,4 hPa 0,0 mm 0,0 km/h (0 Bft) SO 226 0 min 0,0 UV-I 0 W/m 6,3 C 8,2 C 0,0 km/h (0 Bft)
20/02/2024 07:42 8,2 C 88 % 1034,5 hPa 0,0 mm 0,0 km/h (0 Bft) SO 226 0 min 0,0 UV-I 0 W/m 6,3 C 8,2 C 0,0 km/h (0 Bft)
20/02/2024 07:39 8,2 C 88 % 1034,5 hPa 0,0 mm 0,0 km/h (0 Bft) SO 226 0 min 0,0 UV-I 0 W/m 6,3 C 8,2 C 0,0 km/h (0 Bft)
20/02/2024 07:36 8,2 C 88 % 1034,5 hPa 0,0 mm 0,0 km/h (0 Bft) SO 226 0 min 0,0 UV-I 0 W/m 6,3 C 8,2 C 0,0 km/h (0 Bft)
20/02/2024 07:33 8,2 C 88 % 1034,5 hPa 0,0 mm 0,2 km/h (0 Bft) SO 224 0 min 0,0 UV-I 0 W/m 6,3 C 8,2 C 3,2 km/h (1 Bft)
20/02/2024 07:30 8,2 C 88 % 1034,5 hPa 0,0 mm 0,1 km/h (0 Bft) SO 228 0 min 0,0 UV-I 0 W/m 6,3 C 8,2 C 1,6 km/h (1 Bft)
20/02/2024 07:27 8,2 C 88 % 1034,5 hPa 0,0 mm 0,0 km/h (0 Bft) SO 226 0 min 0,0 UV-I 0 W/m 6,3 C 8,2 C 1,6 km/h (1 Bft)
20/02/2024 07:24 8,2 C 88 % 1034,4 hPa 0,0 mm 0,2 km/h (0 Bft) SO 227 0 min 0,0 UV-I 0 W/m 6,3 C 8,2 C 1,6 km/h (1 Bft)
20/02/2024 07:21 8,2 C 88 % 1034,4 hPa 0,0 mm 0,4 km/h (0 Bft) SO 226 0 min 0,0 UV-I 0 W/m 6,3 C 8,2 C 3,2 km/h (1 Bft)
20/02/2024 07:18 8,2 C 88 % 1034,4 hPa 0,0 mm 0,0 km/h (0 Bft) SO 226 0 min 0,0 UV-I 0 W/m 6,3 C 8,2 C 0,0 km/h (0 Bft)
20/02/2024 07:15 8,2 C 88 % 1034,4 hPa 0,0 mm 0,0 km/h (0 Bft) SO 226 0 min 0,0 UV-I 0 W/m 6,3 C 8,2 C 0,0 km/h (0 Bft)
20/02/2024 07:12 8,3 C 88 % 1034,4 hPa 0,0 mm 0,0 km/h (0 Bft) SO 226 0 min 0,0 UV-I 0 W/m 6,4 C 8,3 C 0,0 km/h (0 Bft)
20/02/2024 07:09 8,2 C 88 % 1034,4 hPa 0,0 mm 0,0 km/h (0 Bft) SO 224 0 min 0,0 UV-I 0 W/m 6,3 C 8,2 C 0,0 km/h (0 Bft)
20/02/2024 07:06 8,3 C 88 % 1034,3 hPa 0,0 mm 0,0 km/h (0 Bft) SO 226 0 min 0,0 UV-I 0 W/m 6,4 C 8,3 C 0,0 km/h (0 Bft)
20/02/2024 07:03 8,2 C 88 % 1034,2 hPa 0,0 mm 0,0 km/h (0 Bft) SO 226 0 min 0,0 UV-I 0 W/m 6,3 C 8,2 C 0,0 km/h (0 Bft)
20/02/2024 07:00 8,3 C 88 % 1034,3 hPa 0,0 mm 0,0 km/h (0 Bft) SO 226 0 min 0,0 UV-I 0 W/m 6,4 C 8,3 C 0,0 km/h (0 Bft)
20/02/2024 06:57 8,3 C 88 % 1034,3 hPa 0,0 mm 2,2 km/h (1 Bft) SO 226 0 min 0,0 UV-I 0 W/m 6,4 C 8,3 C 6,4 km/h (2 Bft)
20/02/2024 06:54 8,3 C 88 % 1034,3 hPa 0,0 mm 0,8 km/h (0 Bft) SO 223 0 min 0,0 UV-I 0 W/m 6,4 C 8,3 C 3,2 km/h (1 Bft)
20/02/2024 06:51 8,3 C 88 % 1034,2 hPa 0,0 mm 1,1 km/h (1 Bft) O-SO 237 0 min 0,0 UV-I 0 W/m 6,4 C 8,3 C 3,2 km/h (1 Bft)
20/02/2024 06:48 8,3 C 88 % 1034,3 hPa 0,0 mm 0,2 km/h (0 Bft) SO 236 0 min 0,0 UV-I 0 W/m 6,4 C 8,3 C 1,6 km/h (1 Bft)
20/02/2024 06:45 8,3 C 88 % 1034,3 hPa 0,0 mm 1,6 km/h (1 Bft) SO 235 0 min 0,0 UV-I 0 W/m 6,4 C 8,3 C 6,4 km/h (2 Bft)
20/02/2024 06:42 8,3 C 88 % 1034,3 hPa 0,0 mm 1,2 km/h (1 Bft) O-SO 243 0 min 0,0 UV-I 0 W/m 6,4 C 8,3 C 4,8 km/h (1 Bft)
20/02/2024 06:39 8,3 C 88 % 1034,3 hPa 0,0 mm 0,3 km/h (0 Bft) O-SO 245 0 min 0,0 UV-I 0 W/m 6,4 C 8,3 C 3,2 km/h (1 Bft)
20/02/2024 06:36 8,3 C 88 % 1034,4 hPa 0,0 mm 1,1 km/h (1 Bft) O-SO 243 0 min 0,0 UV-I 0 W/m 6,4 C 8,3 C 3,2 km/h (1 Bft)
20/02/2024 06:33 8,3 C 88 % 1034,4 hPa 0,0 mm 0,4 km/h (0 Bft) O-SO 242 0 min 0,0 UV-I 0 W/m 6,4 C 8,3 C 3,2 km/h (1 Bft)
20/02/2024 06:30 8,3 C 88 % 1034,4 hPa 0,0 mm 0,7 km/h (0 Bft) O-SO 244 0 min 0,0 UV-I 0 W/m 6,4 C 8,3 C 1,6 km/h (1 Bft)
20/02/2024 06:27 8,3 C 88 % 1034,4 hPa 0,0 mm 0,9 km/h (0 Bft) O-SO 245 0 min 0,0 UV-I 0 W/m 6,4 C 8,3 C 3,2 km/h (1 Bft)
20/02/2024 06:24 8,3 C 88 % 1034,4 hPa 0,0 mm 0,9 km/h (0 Bft) O-SO 244 0 min 0,0 UV-I 0 W/m 6,4 C 8,3 C 3,2 km/h (1 Bft)
20/02/2024 06:21 8,3 C 88 % 1034,5 hPa 0,0 mm 0,1 km/h (0 Bft) O-SO 243 0 min 0,0 UV-I 0 W/m 6,4 C 8,3 C 1,6 km/h (1 Bft)
20/02/2024 06:18 8,3 C 88 % 1034,5 hPa 0,0 mm 0,1 km/h (0 Bft) O-SO 244 0 min 0,0 UV-I 0 W/m 6,4 C 8,3 C 1,6 km/h (1 Bft)
20/02/2024 06:15 8,3 C 88 % 1034,5 hPa 0,0 mm 0,8 km/h (0 Bft) O-SO 243 0 min 0,0 UV-I 0 W/m 6,4 C 8,3 C 3,2 km/h (1 Bft)
20/02/2024 06:12 8,3 C 88 % 1034,5 hPa 0,0 mm 0,5 km/h (0 Bft) O-SO 241 0 min 0,0 UV-I 0 W/m 6,4 C 8,3 C 3,2 km/h (1 Bft)
20/02/2024 06:09 8,3 C 88 % 1034,6 hPa 0,0 mm 0,0 km/h (0 Bft) O-SO 243 0 min 0,0 UV-I 0 W/m 6,4 C 8,3 C 0,0 km/h (0 Bft)
20/02/2024 06:06 8,2 C 88 % 1034,6 hPa 0,0 mm 0,0 km/h (0 Bft) O-SO 244 0 min 0,0 UV-I 0 W/m 6,3 C 8,2 C 0,0 km/h (0 Bft)
20/02/2024 06:03 8,2 C 88 % 1034,6 hPa 0,0 mm 0,0 km/h (0 Bft) O-SO 243 0 min 0,0 UV-I 0 W/m 6,3 C 8,2 C 0,0 km/h (0 Bft)
20/02/2024 06:00 8,2 C 88 % 1034,6 hPa 0,0 mm 0,0 km/h (0 Bft) O-SO 249 0 min 0,0 UV-I 0 W/m 6,3 C 8,2 C 0,0 km/h (0 Bft)
20/02/2024 05:57 8,2 C 88 % 1034,5 hPa 0,0 mm 0,0 km/h (0 Bft) O-SO 244 0 min 0,0 UV-I 0 W/m 6,3 C 8,2 C 0,0 km/h (0 Bft)
20/02/2024 05:54 8,2 C 88 % 1034,5 hPa 0,0 mm 0,0 km/h (0 Bft) O-SO 244 0 min 0,0 UV-I 0 W/m 6,3 C 8,2 C 0,0 km/h (0 Bft)
20/02/2024 05:51 8,2 C 88 % 1034,5 hPa 0,0 mm 0,0 km/h (0 Bft) O-SO 244 0 min 0,0 UV-I 0 W/m 6,3 C 8,2 C 0,0 km/h (0 Bft)
20/02/2024 05:48 8,2 C 88 % 1034,5 hPa 0,0 mm 0,0 km/h (0 Bft) O-SO 243 0 min 0,0 UV-I 0 W/m 6,3 C 8,2 C 1,6 km/h (1 Bft)
20/02/2024 05:45 8,2 C 88 % 1034,5 hPa 0,0 mm 0,3 km/h (0 Bft) O-SO 244 0 min 0,0 UV-I 0 W/m 6,3 C 8,2 C 3,2 km/h (1 Bft)
20/02/2024 05:42 8,2 C 88 % 1034,5 hPa 0,0 mm 0,8 km/h (0 Bft) O-SO 245 0 min 0,0 UV-I 0 W/m 6,3 C 8,2 C 6,4 km/h (2 Bft)
20/02/2024 05:39 8,2 C 88 % 1034,5 hPa 0,0 mm 1,7 km/h (1 Bft) O-SO 244 0 min 0,0 UV-I 0 W/m 6,3 C 8,2 C 3,2 km/h (1 Bft)
20/02/2024 05:36 8,2 C 88 % 1034,5 hPa 0,0 mm 0,9 km/h (0 Bft) O-SO 245 0 min 0,0 UV-I 0 W/m 6,3 C 8,2 C 3,2 km/h (1 Bft)
20/02/2024 05:33 8,2 C 89 % 1034,5 hPa 0,0 mm 0,4 km/h (0 Bft) O-SO 245 0 min 0,0 UV-I 0 W/m 6,5 C 8,2 C 1,6 km/h (1 Bft)
20/02/2024 05:30 8,1 C 89 % 1034,4 hPa 0,0 mm 0,8 km/h (0 Bft) O-SO 247 0 min 0,0 UV-I 0 W/m 6,4 C 8,1 C 6,4 km/h (2 Bft)
20/02/2024 05:27 8,2 C 89 % 1034,4 hPa 0,0 mm 1,9 km/h (1 Bft) O-SO 242 0 min 0,0 UV-I 0 W/m 6,5 C 8,2 C 6,4 km/h (2 Bft)
20/02/2024 05:24 8,1 C 89 % 1034,4 hPa 0,0 mm 1,8 km/h (1 Bft) O 259 0 min 0,0 UV-I 0 W/m 6,4 C 8,1 C 4,8 km/h (1 Bft)
20/02/2024 05:21 8,1 C 89 % 1034,3 hPa 0,0 mm 0,2 km/h (0 Bft) O 259 0 min 0,0 UV-I 0 W/m 6,4 C 8,1 C 1,6 km/h (1 Bft)
20/02/2024 05:18 8,0 C 89 % 1034,3 hPa 0,0 mm 0,7 km/h (0 Bft) O 260 0 min 0,0 UV-I 0 W/m 6,3 C 8,0 C 3,2 km/h (1 Bft)
20/02/2024 05:15 8,0 C 89 % 1034,4 hPa 0,0 mm 0,4 km/h (0 Bft) O 260 0 min 0,0 UV-I 0 W/m 6,3 C 8,0 C 3,2 km/h (1 Bft)
20/02/2024 05:12 7,9 C 89 % 1034,3 hPa 0,0 mm 0,7 km/h (0 Bft) O 262 0 min 0,0 UV-I 0 W/m 6,2 C 7,9 C 6,4 km/h (2 Bft)
20/02/2024 05:09 7,9 C 90 % 1034,3 hPa 0,0 mm 0,0 km/h (0 Bft) O-NO 287 0 min 0,0 UV-I 0 W/m 6,4 C 7,9 C 0,0 km/h (0 Bft)
20/02/2024 05:06 7,8 C 90 % 1034,3 hPa 0,0 mm 0,0 km/h (0 Bft) O-NO 287 0 min 0,0 UV-I 0 W/m 6,3 C 7,8 C 0,0 km/h (0 Bft)
20/02/2024 05:03 7,8 C 89 % 1034,3 hPa 0,0 mm 0,0 km/h (0 Bft) O-NO 289 0 min 0,0 UV-I 0 W/m 6,1 C 7,8 C 0,0 km/h (0 Bft)
20/02/2024 05:00 7,7 C 89 % 1034,3 hPa 0,0 mm 0,0 km/h (0 Bft) O-NO 290 0 min 0,0 UV-I 0 W/m 6,0 C 7,7 C 0,0 km/h (0 Bft)
20/02/2024 04:57 7,6 C 89 % 1034,4 hPa 0,0 mm 0,0 km/h (0 Bft) O-NO 289 0 min 0,0 UV-I 0 W/m 5,9 C 7,6 C 0,0 km/h (0 Bft)
20/02/2024 04:54 7,6 C 89 % 1034,4 hPa 0,0 mm 0,0 km/h (0 Bft) O-NO 288 0 min 0,0 UV-I 0 W/m 5,9 C 7,6 C 0,0 km/h (0 Bft)
20/02/2024 04:51 7,5 C 89 % 1034,4 hPa 0,0 mm 0,0 km/h (0 Bft) O-NO 288 0 min 0,0 UV-I 0 W/m 5,8 C 7,5 C 0,0 km/h (0 Bft)
20/02/2024 04:48 7,4 C 89 % 1034,5 hPa 0,0 mm 0,0 km/h (0 Bft) O-NO 290 0 min 0,0 UV-I 0 W/m 5,7 C 7,4 C 0,0 km/h (0 Bft)
20/02/2024 04:45 7,4 C 89 % 1034,5 hPa 0,0 mm 0,0 km/h (0 Bft) O-NO 289 0 min 0,0 UV-I 0 W/m 5,7 C 7,4 C 0,0 km/h (0 Bft)
20/02/2024 04:42 7,3 C 89 % 1034,5 hPa 0,0 mm 0,0 km/h (0 Bft) O-NO 291 0 min 0,0 UV-I 0 W/m 5,6 C 7,3 C 0,0 km/h (0 Bft)
20/02/2024 04:39 7,2 C 89 % 1034,5 hPa 0,0 mm 0,0 km/h (0 Bft) O-NO 289 0 min 0,0 UV-I 0 W/m 5,5 C 7,2 C 0,0 km/h (0 Bft)
20/02/2024 04:36 7,2 C 89 % 1034,4 hPa 0,0 mm 0,0 km/h (0 Bft) O-NO 289 0 min 0,0 UV-I 0 W/m 5,5 C 7,2 C 0,0 km/h (0 Bft)
20/02/2024 04:33 7,1 C 88 % 1034,4 hPa 0,0 mm 0,0 km/h (0 Bft) O-NO 289 0 min 0,0 UV-I 0 W/m 5,2 C 7,1 C 0,0 km/h (0 Bft)
20/02/2024 04:30 7,0 C 88 % 1034,4 hPa 0,0 mm 0,0 km/h (0 Bft) O-NO 289 0 min 0,0 UV-I 0 W/m 5,2 C 7,0 C 0,0 km/h (0 Bft)
20/02/2024 04:27 6,9 C 88 % 1034,5 hPa 0,0 mm 0,0 km/h (0 Bft) O-NO 289 0 min 0,0 UV-I 0 W/m 5,1 C 6,9 C 0,0 km/h (0 Bft)
20/02/2024 04:24 6,8 C 88 % 1034,5 hPa 0,0 mm 0,0 km/h (0 Bft) O-NO 291 0 min 0,0 UV-I 0 W/m 5,0 C 6,8 C 0,0 km/h (0 Bft)
20/02/2024 04:21 6,8 C 88 % 1034,5 hPa 0,0 mm 0,0 km/h (0 Bft) N 359 0 min 0,0 UV-I 0 W/m 5,0 C 6,8 C 0,0 km/h (0 Bft)
20/02/2024 04:18 6,9 C 88 % 1034,4 hPa 0,0 mm 0,0 km/h (0 Bft) O-NO 289 0 min 0,0 UV-I 0 W/m 5,1 C 6,9 C 0,0 km/h (0 Bft)
20/02/2024 04:15 7,0 C 88 % 1034,4 hPa 0,0 mm 0,0 km/h (0 Bft) O-NO 291 0 min 0,0 UV-I 0 W/m 5,2 C 7,0 C 0,0 km/h (0 Bft)
20/02/2024 04:12 7,1 C 88 % 1034,3 hPa 0,0 mm 0,0 km/h (0 Bft) O-NO 289 0 min 0,0 UV-I 0 W/m 5,2 C 7,1 C 0,0 km/h (0 Bft)
20/02/2024 04:09 7,2 C 88 % 1034,3 hPa 0,0 mm 0,0 km/h (0 Bft) O-NO 289 0 min 0,0 UV-I 0 W/m 5,3 C 7,2 C 0,0 km/h (0 Bft)
20/02/2024 04:06 7,3 C 87 % 1034,4 hPa 0,0 mm 0,0 km/h (0 Bft) O-NO 289 0 min 0,0 UV-I 0 W/m 5,3 C 7,3 C 0,0 km/h (0 Bft)
20/02/2024 04:03 7,4 C 88 % 1034,4 hPa 0,0 mm 0,0 km/h (0 Bft) O-NO 290 0 min 0,0 UV-I 0 W/m 5,5 C 7,4 C 0,0 km/h (0 Bft)
20/02/2024 04:00 7,5 C 88 % 1034,4 hPa 0,0 mm 0,0 km/h (0 Bft) O-NO 290 0 min 0,0 UV-I 0 W/m 5,6 C 7,5 C 0,0 km/h (0 Bft)
20/02/2024 03:57 7,7 C 88 % 1034,4 hPa 0,0 mm 0,0 km/h (0 Bft) O-NO 290 0 min 0,0 UV-I 0 W/m 5,8 C 7,7 C 0,0 km/h (0 Bft)
20/02/2024 03:54 7,7 C 88 % 1034,5 hPa 0,0 mm 0,0 km/h (0 Bft) N 359 0 min 0,0 UV-I 0 W/m 5,8 C 7,7 C 0,0 km/h (0 Bft)
20/02/2024 03:51 7,8 C 88 % 1034,5 hPa 0,0 mm 0,0 km/h (0 Bft) O-NO 290 0 min 0,0 UV-I 0 W/m 5,9 C 7,8 C 0,0 km/h (0 Bft)
20/02/2024 03:48 7,9 C 88 % 1034,5 hPa 0,0 mm 0,0 km/h (0 Bft) O-NO 289 0 min 0,0 UV-I 0 W/m 6,0 C 7,9 C 0,0 km/h (0 Bft)
20/02/2024 03:45 7,9 C 88 % 1034,5 hPa 0,0 mm 0,0 km/h (0 Bft) O-NO 291 0 min 0,0 UV-I 0 W/m 6,0 C 7,9 C 0,0 km/h (0 Bft)
20/02/2024 03:42 8,0 C 88 % 1034,5 hPa 0,0 mm 0,0 km/h (0 Bft) O-NO 290 0 min 0,0 UV-I 0 W/m 6,1 C 8,0 C 0,0 km/h (0 Bft)
20/02/2024 03:39 8,0 C 88 % 1034,5 hPa 0,0 mm 0,0 km/h (0 Bft) O-NO 289 0 min 0,0 UV-I 0 W/m 6,1 C 8,0 C 0,0 km/h (0 Bft)
20/02/2024 03:36 8,0 C 88 % 1034,6 hPa 0,0 mm 0,0 km/h (0 Bft) N 359 0 min 0,0 UV-I 0 W/m 6,1 C 8,0 C 0,0 km/h (0 Bft)
20/02/2024 03:33 8,0 C 87 % 1034,5 hPa 0,0 mm 0,0 km/h (0 Bft) O-NO 293 0 min 0,0 UV-I 0 W/m 6,0 C 8,0 C 0,0 km/h (0 Bft)
20/02/2024 03:30 8,0 C 87 % 1034,6 hPa 0,0 mm 0,0 km/h (0 Bft) O-NO 290 0 min 0,0 UV-I 0 W/m 6,0 C 8,0 C 0,0 km/h (0 Bft)
20/02/2024 03:27 7,9 C 87 % 1034,7 hPa 0,0 mm 0,0 km/h (0 Bft) O-NO 291 0 min 0,0 UV-I 0 W/m 5,9 C 7,9 C 0,0 km/h (0 Bft)
20/02/2024 03:24 8,0 C 87 % 1034,7 hPa 0,0 mm 0,0 km/h (0 Bft) O-NO 290 0 min 0,0 UV-I 0 W/m 6,0 C 8,0 C 0,0 km/h (0 Bft)
20/02/2024 03:21 8,0 C 87 % 1034,8 hPa 0,0 mm 0,0 km/h (0 Bft) N 359 0 min 0,0 UV-I 0 W/m 6,0 C 8,0 C 0,0 km/h (0 Bft)
20/02/2024 03:18 8,0 C 87 % 1034,8 hPa 0,0 mm 0,0 km/h (0 Bft) O-NO 289 0 min 0,0 UV-I 0 W/m 6,0 C 8,0 C 0,0 km/h (0 Bft)
20/02/2024 03:15 8,1 C 87 % 1034,9 hPa 0,0 mm 0,0 km/h (0 Bft) O-NO 289 0 min 0,0 UV-I 0 W/m 6,1 C 8,1 C 0,0 km/h (0 Bft)
20/02/2024 03:12 8,1 C 87 % 1034,8 hPa 0,0 mm 0,0 km/h (0 Bft) O-NO 289 0 min 0,0 UV-I 0 W/m 6,1 C 8,1 C 0,0 km/h (0 Bft)
20/02/2024 03:09 8,1 C 87 % 1034,8 hPa 0,0 mm 0,0 km/h (0 Bft) O-NO 289 0 min 0,0 UV-I 0 W/m 6,1 C 8,1 C 0,0 km/h (0 Bft)
20/02/2024 03:06 8,2 C 87 % 1034,9 hPa 0,0 mm 0,0 km/h (0 Bft) O-NO 289 0 min 0,0 UV-I 0 W/m 6,2 C 8,2 C 0,0 km/h (0 Bft)
20/02/2024 03:03 8,2 C 87 % 1034,9 hPa 0,0 mm 0,0 km/h (0 Bft) O-NO 287 0 min 0,0 UV-I 0 W/m 6,2 C 8,2 C 0,0 km/h (0 Bft)
20/02/2024 03:00 8,2 C 87 % 1034,9 hPa 0,0 mm 0,0 km/h (0 Bft) O-NO 289 0 min 0,0 UV-I 0 W/m 6,2 C 8,2 C 0,0 km/h (0 Bft)
20/02/2024 02:57 8,2 C 87 % 1034,9 hPa 0,0 mm 0,0 km/h (0 Bft) O-NO 290 0 min 0,0 UV-I 0 W/m 6,2 C 8,2 C 0,0 km/h (0 Bft)
20/02/2024 02:54 8,3 C 87 % 1034,9 hPa 0,0 mm 0,0 km/h (0 Bft) O-NO 290 0 min 0,0 UV-I 0 W/m 6,3 C 8,3 C 0,0 km/h (0 Bft)
20/02/2024 02:51 8,3 C 87 % 1035,0 hPa 0,0 mm 0,0 km/h (0 Bft) O-NO 291 0 min 0,0 UV-I 0 W/m 6,3 C 8,3 C 0,0 km/h (0 Bft)
20/02/2024 02:48 8,2 C 87 % 1035,0 hPa 0,0 mm 0,0 km/h (0 Bft) O-NO 290 0 min 0,0 UV-I 0 W/m 6,2 C 8,2 C 0,0 km/h (0 Bft)
20/02/2024 02:45 8,2 C 87 % 1035,0 hPa 0,0 mm 0,0 km/h (0 Bft) O-NO 289 0 min 0,0 UV-I 0 W/m 6,2 C 8,2 C 0,0 km/h (0 Bft)
20/02/2024 02:42 8,2 C 87 % 1035,1 hPa 0,0 mm 0,0 km/h (0 Bft) O-NO 290 0 min 0,0 UV-I 0 W/m 6,2 C 8,2 C 0,0 km/h (0 Bft)
20/02/2024 02:39 8,2 C 87 % 1035,0 hPa 0,0 mm 0,0 km/h (0 Bft) O-NO 289 0 min 0,0 UV-I 0 W/m 6,2 C 8,2 C 0,0 km/h (0 Bft)
20/02/2024 02:36 8,2 C 86 % 1035,0 hPa 0,0 mm 0,0 km/h (0 Bft) O-NO 289 0 min 0,0 UV-I 0 W/m 6,0 C 8,2 C 0,0 km/h (0 Bft)
20/02/2024 02:33 8,2 C 86 % 1035,0 hPa 0,0 mm 0,0 km/h (0 Bft) O-NO 289 0 min 0,0 UV-I 0 W/m 6,0 C 8,2 C 0,0 km/h (0 Bft)
20/02/2024 02:30 8,2 C 86 % 1035,0 hPa 0,0 mm 0,0 km/h (0 Bft) O-NO 290 0 min 0,0 UV-I 0 W/m 6,0 C 8,2 C 0,0 km/h (0 Bft)
20/02/2024 02:27 8,2 C 86 % 1035,0 hPa 0,0 mm 0,0 km/h (0 Bft) O-NO 290 0 min 0,0 UV-I 0 W/m 6,0 C 8,2 C 0,0 km/h (0 Bft)
20/02/2024 02:24 8,3 C 85 % 1035,0 hPa 0,0 mm 0,0 km/h (0 Bft) O-NO 289 0 min 0,0 UV-I 0 W/m 5,9 C 8,3 C 0,0 km/h (0 Bft)
20/02/2024 02:21 8,3 C 85 % 1035,0 hPa 0,0 mm 0,0 km/h (0 Bft) O-NO 289 0 min 0,0 UV-I 0 W/m 5,9 C 8,3 C 0,0 km/h (0 Bft)
20/02/2024 02:18 8,4 C 85 % 1034,9 hPa 0,0 mm 0,0 km/h (0 Bft) O-NO 289 0 min 0,0 UV-I 0 W/m 6,0 C 8,4 C 0,0 km/h (0 Bft)
20/02/2024 02:15 8,5 C 85 % 1034,9 hPa 0,0 mm 0,0 km/h (0 Bft) O-NO 288 0 min 0,0 UV-I 0 W/m 6,1 C 8,5 C 0,0 km/h (0 Bft)
20/02/2024 02:12 8,6 C 85 % 1035,0 hPa 0,0 mm 0,0 km/h (0 Bft) O-NO 289 0 min 0,0 UV-I 0 W/m 6,2 C 8,6 C 0,0 km/h (0 Bft)
20/02/2024 02:09 8,7 C 85 % 1035,1 hPa 0,0 mm 0,0 km/h (0 Bft) O-NO 297 0 min 0,0 UV-I 0 W/m 6,3 C 8,7 C 0,0 km/h (0 Bft)
20/02/2024 02:06 8,8 C 85 % 1035,1 hPa 0,0 mm 0,0 km/h (0 Bft) O-NO 291 0 min 0,0 UV-I 0 W/m 6,4 C 8,8 C 0,0 km/h (0 Bft)
20/02/2024 02:03 8,8 C 85 % 1035,2 hPa 0,0 mm 0,0 km/h (0 Bft) O-NO 291 0 min 0,0 UV-I 0 W/m 6,4 C 8,8 C 0,0 km/h (0 Bft)
20/02/2024 02:00 8,8 C 85 % 1035,3 hPa 0,0 mm 0,2 km/h (0 Bft) O-NO 289 0 min 0,0 UV-I 0 W/m 6,4 C 8,8 C 1,6 km/h (1 Bft)
20/02/2024 01:57 8,9 C 85 % 1035,3 hPa 0,0 mm 0,2 km/h (0 Bft) O-NO 291 0 min 0,0 UV-I 0 W/m 6,5 C 8,9 C 3,2 km/h (1 Bft)
20/02/2024 01:54 8,9 C 85 % 1035,3 hPa 0,0 mm 0,0 km/h (0 Bft) O-NO 288 0 min 0,0 UV-I 0 W/m 6,5 C 8,9 C 1,6 km/h (1 Bft)
20/02/2024 01:51 8,9 C 85 % 1035,3 hPa 0,0 mm 1,0 km/h (0 Bft) O-NO 289 0 min 0,0 UV-I 0 W/m 6,5 C 8,9 C 3,2 km/h (1 Bft)
20/02/2024 01:48 8,9 C 85 % 1035,3 hPa 0,0 mm 0,1 km/h (0 Bft) O-NO 291 0 min 0,0 UV-I 0 W/m 6,5 C 8,9 C 1,6 km/h (1 Bft)
20/02/2024 01:45 9,0 C 85 % 1035,3 hPa 0,0 mm 0,4 km/h (0 Bft) O-NO 290 0 min 0,0 UV-I 0 W/m 6,6 C 9,0 C 3,2 km/h (1 Bft)
20/02/2024 01:42 9,0 C 84 % 1035,3 hPa 0,0 mm 0,3 km/h (0 Bft) O-NO 291 0 min 0,0 UV-I 0 W/m 6,4 C 9,0 C 1,6 km/h (1 Bft)
20/02/2024 01:39 9,0 C 85 % 1035,3 hPa 0,0 mm 0,0 km/h (0 Bft) O-NO 289 0 min 0,0 UV-I 0 W/m 6,6 C 9,0 C 0,0 km/h (0 Bft)
20/02/2024 01:36 9,1 C 84 % 1035,4 hPa 0,0 mm 0,0 km/h (0 Bft) O-NO 289 0 min 0,0 UV-I 0 W/m 6,5 C 9,1 C 0,0 km/h (0 Bft)
20/02/2024 01:33 9,1 C 84 % 1035,5 hPa 0,0 mm 0,8 km/h (0 Bft) O-NO 290 0 min 0,0 UV-I 0 W/m 6,5 C 9,1 C 3,2 km/h (1 Bft)
20/02/2024 01:30 9,1 C 84 % 1035,5 hPa 0,0 mm 0,2 km/h (0 Bft) O-NO 290 0 min 0,0 UV-I 0 W/m 6,5 C 9,1 C 3,2 km/h (1 Bft)
20/02/2024 01:27 9,1 C 84 % 1035,5 hPa 0,0 mm 0,5 km/h (0 Bft) O-NO 290 0 min 0,0 UV-I 0 W/m 6,5 C 9,1 C 1,6 km/h (1 Bft)
20/02/2024 01:24 9,1 C 84 % 1035,5 hPa 0,0 mm 0,2 km/h (0 Bft) O-NO 290 0 min 0,0 UV-I 0 W/m 6,5 C 9,1 C 1,6 km/h (1 Bft)
20/02/2024 01:21 9,1 C 84 % 1035,5 hPa 0,0 mm 0,5 km/h (0 Bft) O-NO 289 0 min 0,0 UV-I 0 W/m 6,5 C 9,1 C 1,6 km/h (1 Bft)
20/02/2024 01:18 9,1 C 84 % 1035,5 hPa 0,0 mm 2,0 km/h (1 Bft) O-NO 294 0 min 0,0 UV-I 0 W/m 6,5 C 9,1 C 8,0 km/h (2 Bft)
20/02/2024 01:15 9,1 C 84 % 1035,5 hPa 0,0 mm 0,8 km/h (0 Bft) O-NO 289 0 min 0,0 UV-I 0 W/m 6,5 C 9,1 C 3,2 km/h (1 Bft)
20/02/2024 01:12 9,1 C 84 % 1035,5 hPa 0,0 mm 0,7 km/h (0 Bft) O-NO 290 0 min 0,0 UV-I 0 W/m 6,5 C 9,1 C 3,2 km/h (1 Bft)
20/02/2024 01:09 9,1 C 84 % 1035,5 hPa 0,0 mm 0,3 km/h (0 Bft) O-NO 292 0 min 0,0 UV-I 0 W/m 6,5 C 9,1 C 1,6 km/h (1 Bft)
20/02/2024 01:06 9,1 C 84 % 1035,6 hPa 0,0 mm 2,1 km/h (1 Bft) O-NO 289 0 min 0,0 UV-I 0 W/m 6,5 C 9,1 C 6,4 km/h (2 Bft)
20/02/2024 01:03 9,1 C 84 % 1035,5 hPa 0,0 mm 0,7 km/h (0 Bft) O-NO 283 0 min 0,0 UV-I 0 W/m 6,5 C 9,1 C 3,2 km/h (1 Bft)
20/02/2024 01:00 9,1 C 84 % 1035,6 hPa 0,0 mm 1,0 km/h (0 Bft) O-NO 284 0 min 0,0 UV-I 0 W/m 6,5 C 9,1 C 6,4 km/h (2 Bft)
20/02/2024 00:57 9,1 C 84 % 1035,6 hPa 0,0 mm 2,2 km/h (1 Bft) O-NO 284 0 min 0,0 UV-I 0 W/m 6,5 C 9,1 C 8,0 km/h (2 Bft)
20/02/2024 00:54 9,1 C 84 % 1035,6 hPa 0,0 mm 1,3 km/h (1 Bft) O 276 0 min 0,0 UV-I 0 W/m 6,5 C 9,1 C 4,8 km/h (1 Bft)
20/02/2024 00:51 9,1 C 84 % 1035,5 hPa 0,0 mm 0,0 km/h (0 Bft) O-NO 285 0 min 0,0 UV-I 0 W/m 6,5 C 9,1 C 0,0 km/h (0 Bft)
20/02/2024 00:48 9,2 C 84 % 1035,5 hPa 0,0 mm 0,0 km/h (0 Bft) O-NO 285 0 min 0,0 UV-I 0 W/m 6,6 C 9,2 C 0,0 km/h (0 Bft)
20/02/2024 00:45 9,2 C 84 % 1035,5 hPa 0,0 mm 0,5 km/h (0 Bft) O-NO 284 0 min 0,0 UV-I 0 W/m 6,6 C 9,2 C 3,2 km/h (1 Bft)
20/02/2024 00:42 9,2 C 84 % 1035,4 hPa 0,0 mm 0,4 km/h (0 Bft) O-NO 284 0 min 0,0 UV-I 0 W/m 6,6 C 9,2 C 6,4 km/h (2 Bft)
20/02/2024 00:39 9,2 C 84 % 1035,5 hPa 0,0 mm 0,2 km/h (0 Bft) O 273 0 min 0,0 UV-I 0 W/m 6,6 C 9,2 C 3,2 km/h (1 Bft)
20/02/2024 00:36 9,2 C 84 % 1035,4 hPa 0,0 mm 0,5 km/h (0 Bft) O 274 0 min 0,0 UV-I 0 W/m 6,6 C 9,2 C 4,8 km/h (1 Bft)
20/02/2024 00:33 9,2 C 84 % 1035,5 hPa 0,0 mm 0,1 km/h (0 Bft) O 274 0 min 0,0 UV-I 0 W/m 6,6 C 9,2 C 1,6 km/h (1 Bft)
20/02/2024 00:30 9,2 C 84 % 1035,5 hPa 0,0 mm 0,9 km/h (0 Bft) O 273 0 min 0,0 UV-I 0 W/m 6,6 C 9,2 C 3,2 km/h (1 Bft)
20/02/2024 00:27 9,3 C 84 % 1035,6 hPa 0,0 mm 1,1 km/h (1 Bft) O 274 0 min 0,0 UV-I 0 W/m 6,7 C 9,3 C 4,8 km/h (1 Bft)
20/02/2024 00:24 9,3 C 84 % 1035,6 hPa 0,0 mm 1,2 km/h (1 Bft) O 269 0 min 0,0 UV-I 0 W/m 6,7 C 9,3 C 6,4 km/h (2 Bft)
20/02/2024 00:21 9,3 C 84 % 1035,6 hPa 0,0 mm 0,4 km/h (0 Bft) O 264 0 min 0,0 UV-I 0 W/m 6,7 C 9,3 C 3,2 km/h (1 Bft)
20/02/2024 00:18 9,3 C 84 % 1035,6 hPa 0,0 mm 1,8 km/h (1 Bft) O 264 0 min 0,0 UV-I 0 W/m 6,7 C 9,3 C 6,4 km/h (2 Bft)
20/02/2024 00:15 9,3 C 84 % 1035,6 hPa 0,0 mm 2,3 km/h (1 Bft) O 281 0 min 0,0 UV-I 0 W/m 6,7 C 9,3 C 8,0 km/h (2 Bft)
20/02/2024 00:12 9,3 C 84 % 1035,6 hPa 0,0 mm 0,9 km/h (0 Bft) O-NO 295 0 min 0,0 UV-I 0 W/m 6,7 C 9,3 C 8,0 km/h (2 Bft)
20/02/2024 00:09 9,3 C 84 % 1035,6 hPa 0,0 mm 3,1 km/h (1 Bft) O-NO 291 0 min 0,0 UV-I 0 W/m 6,7 C 9,3 C 8,0 km/h (2 Bft)
20/02/2024 00:06 9,4 C 85 % 1035,6 hPa 0,0 mm 1,8 km/h (1 Bft) O-NO 288 0 min 0,0 UV-I 0 W/m 7,0 C 9,4 C 8,0 km/h (2 Bft)
20/02/2024 00:03 9,3 C 85 % 1035,7 hPa 0,0 mm 1,7 km/h (1 Bft) O-NO 288 0 min 0,0 UV-I 0 W/m 6,9 C 9,3 C 8,0 km/h (2 Bft)
20/02/2024 00:00 9,3 C 85 % 1035,7 hPa 0,0 mm 3,0 km/h (1 Bft) O-SO 256 0 min 0,0 UV-I 0 W/m 6,9 C 9,3 C 11,3 km/h (2 Bft)
_ Min-Heure 04:21 00:09 06:51 - 00:48 - - - - - 04:21 04:21 00:48
Minimum _ 6,8 C 84 % 1034,2 hPa - 0,0 km/h (0 Bft) - - - - - 5,0 C 6,8 C 0,0 km/h (0 Bft)
_ Max-Heure 11:06 05:06 00:00 00:00 11:09 - - 10:51 10:45 10:51 11:06 11:06 00:00
Maximum _ 10,2 C 90 % 1035,7 hPa 0,0 mm 3,2 km/h
O-NO (1 Bft)
- - 5 min 0,7 UV-I 302 W/m 8,0 C 10,2 C 11,3 km/h
NO (2 Bft)
Moyenne _ 8,5 C 87 % 1034,8 hPa #0,0 mm 0,5 km/h (0 Bft) O-NO - #11 min. 0,6 UV-I 89 W/m 6,5 C 8,5 C 2,1 km/h (1 Bft)